www.pogodaiklimat.ru

Погода и климат >> Архив погоды >> Иран >> Bandar Lengeh


ПОГОДА в Bandar Lengeh

  • Прогноз погоды в Bandar Lengeh
  • Монитор погоды в Bandar Lengeh
  • Климат города

АРХИВ ПОГОДЫ в Bandar Lengeh

Время (UTC), дата Ветер
(напр.,м/с)
 
Видим.   Явления Облачность Т
(С)
Тd
(С)
f
(%)
Тe
(С)
Тes
(С)
Комфортность P
(гПа)
Po
(гПа)
Тmin
(С)
Tmax
(С)
R
(мм)
R24
(мм)
S
(см)
12 12.12 В 4 12 км ясно +25.0 +17.1 62 +29 +30 душно 1017.1 1014.9
15 12.12 ЮВ 2 12 км ясно +21.9 +19.1 84 +27 +27 душно 1018.0 1015.8 +25.8
18 12.12 СВ 2 10 км ясно +20.0 +18.1 89 +24 +24 комфорт 1018.9 1016.6
21 12.12 С 2 5000 м дымка ясно +18.3 +18.0 98 +19 +19 1018.6 1016.3
00 13.12 С 3 5000 м дымка ясно +18.2 +17.7 97 +19 +19 1018.5 1016.2
03 13.12 СВ 2 6000 м дымка ясно +17.6 +15.2 86 +18 +18 1019.5 1017.2 +16.3
06 13.12 СВ 3 10 км 1/1 900 м
[Cu hum]
+23.0 +16.6 67 +28 +32 душно 1021.6 1019.3
09 13.12 ЮВ 3 10 км 1/1 900 м
[Cu hum]
+24.8 +17.4 63 +29 +35 душно 1020.4 1018.1
12 13.12 штиль 0 12 км 3/3 900 м
[Cu hum]
+25.4 +15.7 55 +29 +30 душно 1018.9 1016.6
15 13.12 штиль 0 10 км ясно +21.4 +17.0 76 +25 +25 комфорт 1018.9 1016.6 +26.0
18 13.12 штиль 0 10 км ясно +19.4 +16.6 84 +21 +21 комфорт 1020.2 1017.9
21 13.12 штиль 0 10 км ясно +17.6 +14.7 83 +18 +18 1019.9 1017.2
00 14.12 штиль 0 10 км ясно +18.2 +13.2 73 +18 +18 1019.5 1017.2
03 14.12 штиль 0 10 км ясно +16.4 +13.0 80 +16 +16 1020.4 1018.1 +15.8
06 14.12 штиль 0 10 км ясно +22.4 +14.6 61 +26 +33 жарко 1022.7 1020.4
09 14.12 В 2 12 км ясно +24.2 +14.8 56 +27 +36 жарко 1021.4 1019.1
12 14.12 штиль 0 15 км ясно +25.2 +14.1 50 +28 +30 жарко 1019.6 1017.3
15 14.12 штиль 0 15 км ясно +21.6 +14.4 64 +25 +25 комфорт 1020.4 1018.1 +26.2
18 14.12 штиль 0 10 км ясно +19.2 +14.0 72 +20 +20 1021.4 1019.1
21 14.12 штиль 0 10 км ясно +17.6 +12.8 73 +18 +18 1018.3
03 15.12 штиль 0 10 км ясно +16.0 +11.2 73 +16 +16 1021.6 1019.3 +16.0
06 15.12 С 2 10 км ясно +22.4 +10.6 47 +24 +30 комфорт 1023.0 1020.7
09 15.12 В 4 10 км ясно +25.1 +12.7 46 +27 +33 жарко 1021.4 1019.1
12 15.12 ЮВ 3 10 км ясно +25.3 +12.3 44 +27 +28 жарко 1019.6 1017.3
15 15.12 штиль 0 10 км ясно +21.3 +11.4 53 +23 +23 комфорт 1021.1 1018.8 +25.6
18 15.12 штиль 0 10 км ясно +19.8 +12.3 62 +21 +21 комфорт 1021.8 1019.5
21 15.12 СВ 2 10 км ясно +18.8 +11.1 61 +20 +20 1021.6 1018.9
00 16.12 С 2 10 км ясно +16.3 +10.4 68 +16 +16 1021.5 1019.2
03 16.12 С 2 10 км ясно +17.2 +9.3 60 +18 +18 1022.6 1020.3 +15.9
06 16.12 СВ 2 12 км ясно +23.5 +7.1 35 +24 +29 комфорт 1024.7 1022.4
09 16.12 В 4 10 км ясно +25.3 +12.9 46 +27 +33 жарко 1022.7 1020.4
12 16.12 В 3 10 км ясно +24.9 +16.3 59 +28 +30 жарко 1021.0 1018.7
15 16.12 штиль 0 10 км ясно +21.8 +15.2 66 +25 +25 комфорт 1022.4 1020.1 +25.9
18 16.12 штиль 0 10 км ясно +19.5 +15.6 78 +21 +21 комфорт 1022.9 1020.6
21 16.12 СЗ 3 10 км ясно +19.9 +14.2 70 +22 +22 комфорт 1022.2 1020.2
00 17.12 С 2 10 км ясно +18.6 +10.4 59 +20 +20 1021.5 1019.2
03 17.12 С 3 10 км ясно +16.5 +9.8 65 +16 +16 1022.1 1019.8 +16.5
06 17.12 С 4 12 км ясно +23.9 +4.9 29 +24 +27 комфорт 1023.4 1021.1
09 17.12 В 3 14 км ясно +26.6 +4.8 25 +26 +33 жарко 1021.0 1018.7
12 17.12 ЮВ 4 14 км ясно +26.6 +5.4 26 +26 +27 жарко 1019.9 1017.6
15 17.12 штиль 0 12 км ясно +20.8 +10.8 53 +22 +22 комфорт 1020.2 1017.9 +27.4
18 17.12 С 2 12 км ясно +19.4 +7.7 47 +21 +21 комфорт 1021.0 1018.7
21 17.12 С 4 12 км ясно +19.4 +3.5 35 +20 +20 1020.5 1018.0
00 18.12 С 3 12 км ясно +18.1 +1.2 32 +18 +18 1020.0 1017.7
03 18.12 С 2 12 км ясно +17.0 +1.7 36 +17 +17 1020.8 1018.5 +16.0
06 18.12 штиль 0 14 км ясно +23.8 +8.7 38 +24 +32 комфорт 1022.9 1020.6
09 18.12 Ю 3 14 км 1/1 900 м
[Cu hum]
+27.0 +9.5 33 +27 +34 жарко 1020.4 1018.1
12 18.12 З 7 11 км ясно +25.3 +11.8 43 +27 +27 жарко 1018.8 1016.5
15 18.12 З 3 8000 м мгла ясно +22.1 +12.6 55 +25 +25 комфорт 1019.6 1017.3 +27.5
18 18.12 СЗ 2 8000 м мгла ясно +19.7 +12.2 62 +22 +22 комфорт 1019.9 1017.6
21 18.12 С 3 8000 м мгла ясно +19.2 +11.6 61 +20 +20 1019.0 1016.7
00 19.12 С 3 8000 м мгла ясно +18.0 +10.3 61 +18 +18 1018.1 1015.8
03 19.12 СЗ 2 10 км ясно +18.2 +8.8 54 +19 +19 1019.0 1016.7 +16.7
06 19.12 СЗ 3 12 км ясно +23.9 +5.2 30 +24 +28 комфорт 1021.2 1018.9

 

Местоположение метеостанции Bandar Lengeh (Иран): широта 26.58 долгота 54.83 высота над уровнем моря 14 м.

В архиве по умолчанию представлена погода в Bandar Lengeh за последнюю неделю. Архивные данные за месяц целиком и за предыдущие месяцы, начиная с января 2011 года, Вы можете получить, выбрав интересующий диапазон дат из раскрывающегося списка и нажав кнопку "Ввод!".


*Определитесь, кто Вы:
робот инопланетянин человек

Внимание! Время в таблицах - всемирное. Для получения местного времени необходимо прибавить поправку, которая в Bandar Lengeh равна 3.5 ч.

Смотрите также архив погоды в соседних городах и на ближайших метеорологических станциях:

Погода в Sirri Island (Иран) (80 км)
Погода в Abu Musa Island (Иран) (83 км)
Погода в Kish Island (Иран) (85 км)
Погода в Khasab (Оман) (146 км)
Погода в Khasab Airport (Оман) (147 км)
Погода в Ras Al Khaimah Int Airport (ОАЭ) (153 км)
Погода в Sharjah (ОАЭ) (155 км)
Погода в Dubai (ОАЭ) (156 км)
Погода в Bandarabbass (Иран) (169 км)
Погода в Diba (Оман) (178 км)

Пояснения к столбцам:

Ветер - указаны скорость ветра в м/с - средняя за 10 мин, порывы в срок и между сроками (в фигурных скобках) и направление, откуда дует ветер: С - северный, СВ - северо-восточный, В - восточный, ЮВ - юго-восточный, Ю - южный, ЮЗ - юго-западный, З - западный, СЗ - северо-западный.
Видимость - горизонтальная дальность видимости в метрах или километрах. При видимости от 1 до 10 км при отсутствии осадков обычно наблюдается дымка, при ухудшении видимости до 1 км и менее - туман. В сухую погоду видимость может ухудшаться дымом, пылью или мглою.
Явления - указаны атмосферные явления, наблюдавшиеся в срок или в последний час перед сроком; фигурными скобками обозначены явления, наблюдавшиеся между сроками (за 1-3 часа до срока); квадратными скобками обозначены град или гололедные отложения с указанием их диаметра в мм.
Облачность - указаны через наклонную черту общая и нижняя облачность в баллах и высота нижней границы облаков в метрах; квадратными скобками обозначены формы облаков: Ci - перистые, Cs - перисто-слоистые, Cc - перисто-кучевые, Ac - высококучевые, As - высокослоистые, Sc - слоисто-кучевые, Ns - слоисто-дождевые, Cu - кучевые, Cb - кучево-дождевые. Подробнее классификацию облаков см. в Атласе облаков (PDF).
T - Температура воздуха - температура, измеренная на высоте 2 м над землей.
Td - Температура точки росы - температура, при понижении до которой содержащийся в воздухе водяной пар достигнет насыщения.
f - Относительная влажность воздуха - влажноcть воздуха, измеренная на высоте 2 м над землей.
Te - Эффективная температура - температура, которую ощущает одетый по сезону человек в тени. Характеристика душности погоды. При расчете учитывается влияние влажности воздуха и скорости ветра на теплоощущения человека.
Tes - Эффективная температура на солнце - температура, которую ощущает человек, с поправкой на солнечный нагрев. Характеристика знойности погоды. Зависит от высоты солнца над горизонтом, облачности и скорости ветра. Ночью, в пасмурную погоду, а также при ветре 12 м/с и более поправка равна нулю.
P - Атмосферное давление - приведенное к уровню моря атмосферное давление.
Po - Атмосферное давление - измеренное на уровне метеостанции атмосферное давление.
Tmin - Минимальная температура - минимум температуры воздуха на высоте 2 м над землей.
Tmax - Максимальная температура - максимум температуры воздуха на высоте 2 м над землей.
R - Количество осадков - Количество выпавших осадков за период времени, мм. При наведении курсора мыши на число - период времени, за который выпало указанное количество осадков.
R24 - Количество осадков - Количество выпавших осадков за 24 часа, мм.
S - Снежный покров - Высота снежного покрова, см. При наведении курсора мыши на число - состояние снежного покрова и степень покрытия местности в баллах.